Regional Weather Roundup
Issued by NWS Little Rock, AR

Home | Current Version | Previous Version | Graphics & Text | Print | Product List | Glossary On
Versions: 1 2 3 4 5 6 7 8 9 10 11 12 13 14 15 16 17 18 19 20 21 22 23 24 25 26 27 28 29 30 31 32 33 34 35 36 37 38 39 40 41 42 43 44 45 46 47 48 49 50
000
ASUS44 KLZK 261605
RWRLZK

WEATHER ROUNDUP FOR ARKANSAS
NATIONAL WEATHER SERVICE LITTLE ROCK AR
1000 AM CST SUN FEB 26 2017

NOTE: "FAIR" INDICATES FEW OR NO CLOUDS BELOW 12,000 FEET WITH NO
SIGNIFICANT WEATHER AND/OR OBSTRUCTIONS TO VISIBILITY.

ARZ001-003-010-029-261700-
NORTHWEST ARKANSAS

CITY           SKY/WX    TMP DP  RH WIND       PRES   REMARKS
FAYETTEVILLE   CLOUDY    45  23  42 SE16      30.05S
FORT SMITH     MOSUNNY   47  27  45 E9        30.07F
HARRISON       CLOUDY    40  25  55 SE10      30.09F
BENTONVILLE    CLOUDY    43  23  45 SE5       30.06R
ROGERS         CLOUDY    42  23  46 SE6       30.06R
SILOAM SPGS    CLOUDY    43  25  49 E3        30.04S
HIGHFILL       CLOUDY    42  26  53 E5        30.05R
SPRINGDALE     MOSUNNY   43  25  49 SE6       30.06F
$$

ARZ004-005-016-261700-
NORTH CENTRAL ARKANSAS

CITY           SKY/WX    TMP DP  RH WIND       PRES   REMARKS
BATESVILLE     PTSUNNY   46  21  36 SE9       30.18R
FLIPPIN        CLOUDY    37  25  60 SE5       30.11F
MTN HOME       CLOUDY    40  23  50 S9        30.12F
$$

ARZ040-041-261700-
WEST CENTRAL ARKANSAS

CITY           SKY/WX    TMP DP  RH WIND       PRES   REMARKS
MENA           MOSUNNY   50  30  46 E3        30.08F
MOUNT IDA      SUNNY     48  23  37 SE13      30.08S
$$

ARZ009-017-025-026-028-261700-
NORTHEAST ARKANSAS

CITY           SKY/WX    TMP DP  RH WIND       PRES   REMARKS
CORNING        FAIR      45  25  45 S15       30.21R
JONESBORO      SUNNY     46  27  47 S14       30.19S
NEWPORT        SUNNY     47  26  44 MISG      30.19R
WALNUT RIDGE   SUNNY     46  25  42 S13G20    30.20R
BLYTHEVILLE    SUNNY     45  24  43 SE13      30.20F
$$

ARZ022-023-033-042-044-261700-
CENTRAL ARKANSAS

CITY           SKY/WX    TMP DP  RH WIND       PRES   REMARKS
LITTLE ROCK    MOSUNNY   48  28  46 SE17      30.16S
N LITTLE ROCK    N/A     47  27  47 SE13      30.17F
JACKSONVILLE   SUNNY     48  27  44 SE13      30.15F
SEARCY         SUNNY     48  28  46 SE14      30.18F
HOT SPRINGS    SUNNY     49  26  41 S8        30.13F
RUSSELLVILLE   SUNNY     47  27  45 E7        30.13S
CLINTON        FAIR      46  25  42 SE9G15    30.15F
$$

ARZ036-261700-
EAST ARKANSAS

CITY           SKY/WX    TMP DP  RH WIND       PRES   REMARKS
WEST MEMPHIS   SUNNY     47  22  37 S14       30.20R
$$

ARZ050-053-066-070-073-261700-
SOUTHWEST ARKANSAS

CITY           SKY/WX    TMP DP  RH WIND       PRES   REMARKS
CAMDEN         SUNNY     50  27  40 SE10G16   30.15S
TEXARKANA      SUNNY     50  27  40 SE15G24   30.11R
EL DORADO      SUNNY     52  26  36 SE13      30.14S
DE QUEEN       MOSUNNY   47  31  53 E8        30.10S
$$

ARZ056-057-069-261700-
SOUTHEAST ARKANSAS

CITY           SKY/WX    TMP DP  RH WIND       PRES   REMARKS
PINE BLUFF     SUNNY     47  30  51 SE16      30.17R
STUTTGART      SUNNY     46  21  36 SE15      30.18S
MONTICELLO     SUNNY     50  25  37 SE8       30.16S

$$





USA.gov is the U.S. government's official web portal to all federal, state and local government web resources and services.